Regional Weather Roundup
Issued by NWS Green Bay, WI

Home | Current Version | Previous Version | Graphics & Text | Print | Product List | Glossary Off
Versions: 1 2 3 4 5 6 7 8 9 10 11 12 13 14 15 16 17 18 19 20 21 22 23 24 25 26 27 28 29 30 31 32 33 34 35 36 37 38 39 40 41 42 43 44 45 46 47 48 49 50

409
ASUS43 KGRB 242300
RWRGRB

NORTH-CENTRAL AND NORTHEAST WISCONSIN REGIONAL WEATHER ROUNDUP
NATIONAL WEATHER SERVICE GREEN BAY WI
500 PM CST SAT FEB 24 2018

WIZ005-009-010>012-018-019-250000-
NORTH CENTRAL WISCONSIN

CITY           SKY/WX    TMP DP  RH WIND       PRES   REMARKS
IRONWOOD       CLOUDY    33  20  58 E12       29.85F
MANITOWISH WTR NOT AVBL
ARBOR VITAE    NOT AVBL
EAGLE RIVER    MOCLDY    32  20  61 SE9       29.86F
LAND O LAKES   CLOUDY    33  22  63 E6        29.88F
RHINELANDER    CLOUDY    33  23  66 E12G22    29.85F
PHILLIPS       CLOUDY    33  24  70 E13G20    29.79F
ANTIGO         NOT AVBL
TOMAHAWK       NOT AVBL
MERRILL        CLOUDY    32  24  71 E9        29.85F
$$

WIZ013-073-250000-
NORTHEAST WISCONSIN

CITY           SKY/WX    TMP DP  RH WIND       PRES   REMARKS
IRON MOUNTAIN  CLOUDY    31  21  66 E9        29.92F
MARINETTE      CLOUDY    31  27  85 E14       29.96F
$$

WIZ017-030-035>037-045-250000-
CENTRAL WISCONSIN

CITY           SKY/WX    TMP DP  RH WIND       PRES   REMARKS
MEDFORD        NOT AVBL
WAUSAU         CLOUDY    32  25  75 E17G25    29.81F
MOSINEE        CLOUDY    32  27  80 E17G25    29.82F
MARSHFIELD     CLOUDY    33  26  75 E21G30    29.74F
WISC RAPIDS    CLOUDY    33  25  72 E17G24    29.79F
STEVENS POINT  NOT AVBL
WAUPACA        NOT AVBL
SHAWANO        CLOUDY    34  27  75 E13       29.92F
CLINTONVILLE   CLOUDY    33  26  75 E10       29.90F
WAUTOMA        CLOUDY    33  27  78 E15       29.83F
$$

WIZ038-039-048-051-250000-
FOX VALLEY

CITY           SKY/WX    TMP DP  RH WIND       PRES   REMARKS
NWS GREEN BAY  CLOUDY    33  25  72 E12       29.92F
APPLETON       CLOUDY    34  25  69 E10G17    29.88F
OSHKOSH        CLOUDY    33  27  78 E12       29.86F
FOND DU LAC    CLOUDY    35  27  72 E16       29.86F
$$

WIZ022-050-052-250000-
EAST CENTRAL WISCONSIN

CITY           SKY/WX    TMP DP  RH WIND       PRES   REMARKS
EPHRAIM        NOT AVBL
WASHINGTON ISL NOT AVBL
STURGEON BAY   CLOUDY    32  26  78 E8        29.96F
MANITOWOC      CLOUDY    33  27  78 NE10      29.92F
SHEBOYGAN      CLOUDY    33  30  88 E15       29.91F
$$

LMZ563-521-522-541>543-250000-
LAKESHORE

STATION/POSITION TIME  TEMP    WIND        PRES    VSBY  WAVE
                       AIR SEA DIR/SP/G                  HT/PER
                 (UTC) (F)     (DEG/KT/KT) (MB)    (MI)  (FT/S)
SHEBOYGAN LKSHOR 2200   34      50/ 11/ 12 1014.7F
KEWAUNEE LKSHORE 2230   33      40/ 11/ 15 1013.6F
NORTHPORT PIER   2240   32                 1015.2F
SISTER BAY LKSHO 2220   33      70/  7/ 11   N/A
MENOMINEE LKSHOR 2230   31      40/ 16/ 18 1014.7F
$$




USA.gov is the U.S. government's official web portal to all federal, state and local government web resources and services.